contact:dominique.lefevre@mio.osupytheas.fr, maurice.libes@osupytheas.fr, didier.mallarino@osupytheas.fr
Project:EMSO http://www.emso-fr.org/EMSO-France
Depth: 2436.0 m
Title:EMSO Ligure Ouest : Data MII capteur AQUADOPP
Date,Latitude,Longitude,X_East,Y_North,Z_Up,Amplitude_X,Amplitude_Y,Amplitude_Z,Batterie,SoundSpeed,Heading,Pitch,Roll,Pressure,TIS,Speed,Direction
, degrees North, degrees East, m.s-1, m.s-1,m.s-1, 1, 1, 1, Volt, m.s-1, degree, degree, degree, dbar, degree_C, m.s-1, degree
2021-07-01T00:04:03,42.805,6.029,-0.057,0.001,0.009,102.0,105.0,102.0,13.3,1505.2,328.4,-0.8,1.8,2470.593,13.28,0.057,271.0
2021-07-01T00:07:03,42.805,6.029,-0.064,0.0,-0.013,103.0,103.0,101.0,13.3,1505.2,328.5,-0.8,1.8,2470.582,13.28,0.063,270.0
2021-07-01T00:10:03,42.805,6.029,-0.031,0.006,-0.02,104.0,102.0,101.0,13.4,1505.2,327.8,-0.7,1.8,2470.594,13.28,0.031,281.0
2021-07-01T00:13:03,42.805,6.029,-0.05,0.006,-0.001,103.0,102.0,101.0,13.4,1505.2,327.7,-0.8,1.8,2470.585,13.28,0.05,276.8
2021-07-01T00:16:03,42.805,6.029,-0.039,0.003,0.018,102.0,102.0,100.0,13.4,1505.2,326.2,-0.7,1.8,2470.599,13.28,0.039,274.4
2021-07-01T00:19:03,42.805,6.029,-0.048,0.008,0.021,102.0,102.0,101.0,13.4,1505.2,326.8,-0.7,1.9,2470.566,13.28,0.048,279.5
2021-07-01T00:22:03,42.805,6.029,-0.036,0.027,0.018,102.0,102.0,101.0,13.3,1505.2,326.4,-0.8,1.8,2470.607,13.28,0.045,306.9
2021-07-01T00:25:03,42.805,6.029,-0.052,0.011,0.007,102.0,102.0,101.0,13.3,1505.2,328.7,-0.7,1.8,2470.581,13.28,0.053,281.9
2021-07-01T00:28:03,42.805,6.029,-0.042,0.012,-0.014,103.0,102.0,101.0,13.4,1505.2,326.0,-0.8,1.8,2470.567,13.28,0.043,285.9
2021-07-01T00:31:03,42.805,6.029,-0.055,-0.003,-0.031,102.0,104.0,102.0,13.4,1505.2,327.0,-0.8,1.8,2470.637,13.28,0.055,266.9
2021-07-01T00:34:03,42.805,6.029,-0.049,0.003,0.023,103.0,102.0,101.0,13.3,1505.2,325.2,-0.8,1.8,2470.516,13.28,0.049,273.5
2021-07-01T00:37:03,42.805,6.029,-0.042,-0.024,-0.04,103.0,102.0,101.0,13.4,1505.2,324.7,-0.8,1.8,2470.556,13.28,0.048,240.3
2021-07-01T00:40:03,42.805,6.029,-0.034,0.0,-0.003,103.0,102.0,108.0,13.4,1505.2,327.0,-0.8,1.8,2470.577,13.28,0.034,270.0
2021-07-01T00:43:03,42.805,6.029,-0.055,-0.01,-0.001,102.0,102.0,102.0,13.4,1505.2,330.0,-0.8,1.8,2470.589,13.28,0.055,259.7
2021-07-01T00:46:03,42.805,6.029,-0.055,0.022,-0.004,104.0,103.0,100.0,13.3,1505.2,327.0,-0.7,1.8,2470.544,13.28,0.059,291.8
2021-07-01T00:49:03,42.805,6.029,-0.068,-0.005,-0.019,104.0,102.0,101.0,13.4,1505.2,328.1,-0.7,1.8,2470.565,13.28,0.068,265.8
2021-07-01T00:52:03,42.805,6.029,-0.049,0.0,-0.011,103.0,103.0,102.0,13.4,1505.2,326.7,-0.7,1.8,2470.576,13.28,0.049,270.0
2021-07-01T00:55:03,42.805,6.029,-0.049,-0.01,-0.016,103.0,102.0,102.0,13.4,1505.2,324.7,-0.8,1.8,2470.561,13.28,0.05,258.5
2021-07-01T00:58:03,42.805,6.029,-0.045,-0.003,-0.004,104.0,102.0,102.0,13.3,1505.2,328.6,-0.7,1.8,2470.576,13.28,0.045,266.2
2021-07-01T01:04:03,42.805,6.029,-0.043,0.002,-0.006,102.0,102.0,101.0,13.4,1505.2,324.9,-0.7,1.8,2470.566,13.28,0.043,272.7
2021-07-01T01:07:03,42.805,6.029,-0.068,0.001,0.022,102.0,103.0,101.0,13.4,1505.2,327.5,-0.8,1.8,2470.578,13.28,0.068,270.8
2021-07-01T01:10:03,42.805,6.029,-0.049,-0.017,0.0,103.0,102.0,102.0,13.3,1505.2,326.4,-0.8,1.9,2470.564,13.28,0.051,250.9
2021-07-01T01:13:03,42.805,6.029,-0.028,-0.01,-0.014,104.0,102.0,101.0,13.3,1505.2,328.0,-0.8,1.8,2470.571,13.28,0.029,250.4
2021-07-01T01:16:03,42.805,6.029,-0.061,-0.001,0.0,102.0,102.0,101.0,13.3,1505.2,325.0,-0.8,1.8,2470.521,13.28,0.061,269.1
2021-07-01T01:19:03,42.805,6.029,-0.044,0.0,-0.005,104.0,103.0,101.0,13.4,1505.2,324.9,-0.8,1.8,2470.537,13.28,0.044,270.0
2021-07-01T01:22:03,42.805,6.029,-0.047,-0.001,-0.02,104.0,103.0,101.0,13.4,1505.2,327.3,-0.8,1.8,2470.584,13.28,0.047,268.8
2021-07-01T01:25:03,42.805,6.029,-0.053,0.027,0.009,104.0,102.0,100.0,13.4,1505.2,328.8,-0.7,1.8,2470.588,13.28,0.059,297.0
2021-07-01T01:28:03,42.805,6.029,-0.05,0.01,0.023,103.0,102.0,100.0,13.4,1505.2,327.2,-0.7,1.8,2470.57,13.28,0.05,281.3
2021-07-01T01:31:03,42.805,6.029,-0.034,-0.007,-0.015,103.0,102.0,102.0,13.3,1505.2,327.3,-0.8,1.8,2470.587,13.28,0.034,258.4
2021-07-01T01:34:03,42.805,6.029,-0.039,0.0,0.004,104.0,103.0,101.0,13.4,1505.2,327.0,-0.8,1.8,2470.585,13.28,0.039,270.0
2021-07-01T01:37:03,42.805,6.029,-0.042,-0.025,-0.002,104.0,103.0,102.0,13.3,1505.2,326.2,-0.7,1.8,2470.551,13.28,0.048,239.2
2021-07-01T01:40:03,42.805,6.029,-0.031,0.016,-0.028,104.0,101.0,102.0,13.4,1505.2,328.1,-0.7,1.8,2470.494,13.28,0.034,297.3
2021-07-01T01:43:03,42.805,6.029,-0.055,0.0,-0.013,102.0,102.0,101.0,13.3,1505.2,328.5,-0.8,1.8,2470.549,13.28,0.055,270.0
2021-07-01T01:46:03,42.805,6.029,-0.05,0.0,-0.04,104.0,102.0,102.0,13.4,1505.2,326.5,-0.8,1.8,2470.568,13.28,0.05,270.0
2021-07-01T01:49:03,42.805,6.029,-0.048,0.0,-0.019,103.0,102.0,102.0,13.4,1505.2,327.0,-0.8,1.8,2470.56,13.28,0.048,270.0
2021-07-01T01:52:03,42.805,6.029,-0.067,-0.015,-0.034,103.0,103.0,101.0,13.4,1505.2,324.9,-0.7,1.8,2470.541,13.28,0.068,257.4
2021-07-01T01:55:03,42.805,6.029,-0.072,-0.004,-0.007,103.0,103.0,101.0,13.4,1505.2,328.1,-0.8,1.8,2470.548,13.28,0.072,266.8
2021-07-01T01:58:03,42.805,6.029,-0.029,0.007,0.005,103.0,103.0,101.0,13.3,1505.2,329.4,-0.8,1.8,2470.567,13.28,0.029,283.6
2021-07-01T02:04:03,42.805,6.029,-0.029,0.005,-0.016,104.0,103.0,101.0,13.3,1505.2,326.1,-0.8,1.8,2470.575,13.28,0.029,279.8
2021-07-01T02:07:03,42.805,6.029,-0.046,0.024,0.029,103.0,104.0,101.0,13.4,1505.2,326.6,-0.8,1.8,2470.596,13.28,0.051,297.6
2021-07-01T02:10:03,42.805,6.029,-0.046,-0.006,-0.001,103.0,104.0,102.0,13.3,1505.2,326.3,-0.7,1.8,2470.566,13.28,0.046,262.6
2021-07-01T02:13:03,42.805,6.029,-0.042,-0.004,-0.024,103.0,103.0,101.0,13.4,1505.2,327.4,-0.8,1.8,2470.586,13.28,0.042,264.6
2021-07-01T02:16:03,42.805,6.029,-0.042,0.002,-0.006,104.0,102.0,101.0,13.3,1505.2,327.7,-0.7,1.8,2470.537,13.28,0.042,272.7
2021-07-01T02:19:03,42.805,6.029,-0.041,-0.005,-0.009,104.0,103.0,102.0,13.3,1505.2,326.8,-0.8,1.8,2470.542,13.28,0.041,263.0
2021-07-01T02:22:03,42.805,6.029,-0.038,-0.012,-0.014,103.0,104.0,102.0,13.4,1505.2,326.8,-0.7,1.8,2470.6,13.28,0.039,252.5
2021-07-01T02:25:03,42.805,6.029,-0.025,-0.005,0.029,104.0,102.0,101.0,13.4,1505.2,329.0,-0.8,1.8,2470.525,13.28,0.025,258.7
2021-07-01T02:28:03,42.805,6.029,-0.022,0.011,0.023,104.0,101.0,103.0,13.4,1505.2,325.9,-0.8,1.8,2470.501,13.28,0.024,296.6
2021-07-01T02:31:03,42.805,6.029,-0.053,-0.007,-0.043,103.0,103.0,101.0,13.3,1505.2,330.7,-0.8,1.8,2470.558,13.28,0.053,262.5
2021-07-01T02:34:03,42.805,6.029,-0.037,-0.011,0.02,101.0,102.0,102.0,13.4,1505.2,326.4,-0.8,1.8,2470.517,13.28,0.038,253.4
2021-07-01T02:37:03,42.805,6.029,-0.054,0.014,0.004,104.0,102.0,101.0,13.4,1505.2,325.4,-0.8,1.8,2470.533,13.28,0.055,284.5
2021-07-01T02:40:03,42.805,6.029,-0.053,0.01,-0.012,103.0,103.0,101.0,13.4,1505.2,325.1,-0.7,1.8,2470.537,13.28,0.053,280.7
2021-07-01T02:43:03,42.805,6.029,-0.044,-0.007,-0.079,102.0,104.0,101.0,13.4,1505.2,326.6,-0.7,1.9,2470.572,13.28,0.044,261.0
2021-07-01T02:46:03,42.805,6.029,-0.036,0.011,0.019,103.0,103.0,101.0,13.3,1505.2,328.4,-0.7,1.8,2470.524,13.28,0.037,287.0
2021-07-01T02:49:03,42.805,6.029,-0.056,0.011,-0.003,103.0,102.0,102.0,13.4,1505.2,328.9,-0.8,1.8,2470.504,13.28,0.057,281.1
2021-07-01T02:52:03,42.805,6.029,-0.055,0.017,0.034,104.0,105.0,101.0,13.4,1505.2,326.1,-0.8,1.8,2470.551,13.28,0.057,287.2
2021-07-01T02:55:03,42.805,6.029,-0.056,-0.012,-0.025,104.0,101.0,102.0,13.4,1505.2,327.4,-0.7,1.8,2470.564,13.28,0.057,257.9
2021-07-01T02:58:03,42.805,6.029,-0.032,-0.018,0.007,104.0,104.0,101.0,13.4,1505.2,325.4,-0.7,1.8,2470.538,13.28,0.036,240.6
2021-07-01T03:04:03,42.805,6.029,-0.039,0.008,-0.024,104.0,104.0,102.0,13.4,1505.2,329.5,-0.8,1.8,2470.601,13.28,0.039,281.6
2021-07-01T03:07:03,42.805,6.029,-0.071,0.008,-0.042,105.0,103.0,102.0,13.4,1505.2,328.1,-0.7,1.8,2470.554,13.28,0.071,276.4
2021-07-01T03:10:03,42.805,6.029,-0.049,-0.001,0.009,104.0,103.0,102.0,13.4,1505.2,327.4,-0.8,1.8,2470.52,13.28,0.049,268.8
2021-07-01T03:13:03,42.805,6.029,-0.023,0.001,-0.007,103.0,103.0,101.0,13.4,1505.2,327.6,-0.8,1.8,2470.529,13.28,0.023,272.5
2021-07-01T03:16:03,42.805,6.029,-0.043,-0.003,-0.008,103.0,103.0,101.0,13.3,1505.2,330.3,-0.8,1.8,2470.531,13.28,0.043,266.0
2021-07-01T03:19:03,42.805,6.029,-0.029,0.009,0.049,103.0,104.0,101.0,13.4,1505.2,324.7,-0.8,1.8,2470.552,13.28,0.03,287.2
2021-07-01T03:22:03,42.805,6.029,-0.041,-0.012,-0.025,104.0,102.0,101.0,13.4,1505.2,329.1,-0.8,1.8,2470.531,13.28,0.042,253.7
2021-07-01T03:25:03,42.805,6.029,-0.052,0.013,0.002,103.0,103.0,102.0,13.4,1505.2,327.9,-0.8,1.9,2470.528,13.28,0.053,284.0
2021-07-01T03:28:03,42.805,6.029,-0.062,-0.004,-0.028,104.0,102.0,101.0,13.4,1505.2,328.0,-0.8,1.8,2470.539,13.28,0.062,266.3
2021-07-01T03:31:03,42.805,6.029,-0.052,0.001,0.034,104.0,105.0,101.0,13.4,1505.2,326.6,-0.8,1.8,2470.515,13.28,0.052,271.1
2021-07-01T03:34:03,42.805,6.029,-0.058,0.0,-0.02,103.0,106.0,103.0,13.4,1505.2,328.1,-0.8,1.8,2470.522,13.28,0.057,270.0
2021-07-01T03:37:03,42.805,6.029,-0.039,0.0,0.023,104.0,103.0,102.0,13.3,1505.2,327.7,-0.7,1.8,2470.476,13.28,0.039,270.0
2021-07-01T03:40:03,42.805,6.029,-0.037,0.003,-0.006,105.0,102.0,102.0,13.4,1505.2,324.7,-0.8,1.8,2470.434,13.28,0.037,274.6
2021-07-01T03:43:03,42.805,6.029,-0.066,0.022,-0.014,104.0,103.0,100.0,13.4,1505.2,326.9,-0.8,1.8,2470.483,13.28,0.069,288.4
2021-07-01T03:46:03,42.805,6.029,-0.072,0.007,-0.011,104.0,104.0,101.0,13.4,1505.2,327.6,-0.8,1.8,2470.5,13.28,0.072,275.5
2021-07-01T03:49:03,42.805,6.029,-0.039,-0.005,0.008,104.0,104.0,102.0,13.3,1505.2,325.8,-0.8,1.8,2470.491,13.28,0.039,262.7
2021-07-01T03:52:03,42.805,6.029,-0.041,-0.002,-0.024,105.0,104.0,101.0,13.3,1505.2,327.3,-0.7,1.8,2470.496,13.28,0.041,267.2
2021-07-01T03:55:03,42.805,6.029,-0.028,0.004,-0.017,104.0,104.0,102.0,13.4,1505.2,329.5,-0.8,1.9,2470.475,13.28,0.028,278.1
2021-07-01T03:58:03,42.805,6.029,-0.038,0.0,0.007,105.0,103.0,102.0,13.3,1505.2,328.9,-0.8,1.9,2470.489,13.28,0.038,270.0
2021-07-01T04:04:03,42.805,6.029,-0.054,0.015,0.0,103.0,105.0,103.0,13.4,1505.2,328.8,-0.7,1.8,2470.524,13.28,0.056,285.5
2021-07-01T04:07:03,42.805,6.029,-0.043,0.002,-0.028,103.0,104.0,103.0,13.3,1505.2,326.1,-0.7,1.8,2470.519,13.28,0.043,272.7
2021-07-01T04:10:03,42.805,6.029,-0.059,0.011,-0.004,103.0,103.0,101.0,13.4,1505.2,329.0,-0.7,1.8,2470.491,13.28,0.06,280.6
2021-07-01T04:13:03,42.805,6.029,-0.048,0.003,-0.008,103.0,104.0,101.0,13.4,1505.2,327.7,-0.7,1.8,2470.547,13.28,0.048,273.6
2021-07-01T04:16:03,42.805,6.029,-0.031,0.0,0.019,103.0,103.0,101.0,13.4,1505.2,325.1,-0.8,1.8,2470.542,13.28,0.03,270.0
2021-07-01T04:19:03,42.805,6.029,-0.033,0.009,0.003,103.0,103.0,102.0,13.4,1505.2,330.2,-0.8,1.8,2470.54,13.28,0.034,285.3
2021-07-01T04:22:03,42.805,6.029,-0.064,0.0,-0.016,103.0,103.0,102.0,13.4,1505.2,326.7,-0.8,1.8,2470.471,13.28,0.063,270.0
2021-07-01T04:25:03,42.805,6.029,-0.032,0.011,0.005,104.0,104.0,102.0,13.4,1505.2,326.4,-0.8,1.8,2470.492,13.28,0.033,289.0
2021-07-01T04:28:03,42.805,6.029,-0.04,0.009,0.006,105.0,103.0,101.0,13.4,1505.2,325.5,-0.8,1.8,2470.461,13.28,0.041,282.7
2021-07-01T04:31:03,42.805,6.029,-0.035,-0.008,0.003,104.0,103.0,102.0,13.4,1505.2,326.6,-0.7,1.8,2470.518,13.28,0.035,257.1
2021-07-01T04:34:03,42.805,6.029,-0.034,-0.006,-0.013,103.0,103.0,102.0,13.3,1505.2,325.2,-0.8,1.8,2470.475,13.28,0.034,260.0
2021-07-01T04:37:03,42.805,6.029,-0.033,-0.002,-0.015,104.0,104.0,101.0,13.4,1505.2,326.7,-0.8,1.8,2470.456,13.28,0.033,266.5
2021-07-01T04:40:03,42.805,6.029,-0.032,0.018,-0.008,104.0,102.0,101.0,13.4,1505.2,326.7,-0.8,1.8,2470.482,13.28,0.036,299.4
2021-07-01T04:43:03,42.805,6.029,-0.043,0.003,0.005,104.0,103.0,101.0,13.4,1505.2,329.3,-0.7,1.8,2470.487,13.28,0.043,274.0
2021-07-01T04:46:03,42.805,6.029,-0.033,-0.003,0.001,104.0,104.0,101.0,13.4,1505.2,326.9,-0.8,1.8,2470.471,13.28,0.033,264.8
2021-07-01T04:49:03,42.805,6.029,-0.025,-0.001,-0.03,104.0,104.0,103.0,13.3,1505.2,328.6,-0.7,1.8,2470.468,13.28,0.025,267.7
2021-07-01T04:52:03,42.805,6.029,-0.029,-0.004,-0.029,104.0,103.0,102.0,13.4,1505.2,328.0,-0.7,1.8,2470.468,13.28,0.029,262.2
2021-07-01T04:55:03,42.805,6.029,-0.032,0.007,0.0,103.0,103.0,101.0,13.4,1505.2,328.2,-0.8,1.8,2470.429,13.28,0.032,282.3
2021-07-01T04:58:03,42.805,6.029,-0.036,0.025,0.028,103.0,102.0,101.0,13.4,1505.2,325.4,-0.8,1.8,2470.465,13.28,0.043,304.8
2021-07-01T05:04:03,42.805,6.029,-0.041,-0.016,0.006,104.0,104.0,102.0,13.3,1505.2,327.5,-0.8,1.8,2470.464,13.28,0.044,248.7
2021-07-01T05:07:03,42.805,6.029,-0.054,-0.008,0.0,104.0,103.0,101.0,13.3,1505.2,326.4,-0.7,1.8,2470.495,13.28,0.054,261.6
2021-07-01T05:10:03,42.805,6.029,-0.023,0.005,0.004,103.0,103.0,102.0,13.4,1505.2,325.2,-0.7,1.8,2470.492,13.28,0.023,282.3
2021-07-01T05:13:03,42.805,6.029,-0.034,-0.012,-0.016,104.0,103.0,102.0,13.4,1505.2,324.8,-0.8,1.8,2470.451,13.28,0.036,250.6
2021-07-01T05:16:03,42.805,6.029,-0.029,0.001,-0.014,105.0,104.0,101.0,13.4,1505.2,328.8,-0.8,1.8,2470.491,13.28,0.029,272.0
2021-07-01T05:19:03,42.805,6.029,-0.045,-0.004,-0.032,104.0,102.0,102.0,13.4,1505.2,327.0,-0.8,1.8,2470.448,13.28,0.045,264.9
2021-07-01T05:22:03,42.805,6.029,-0.055,0.036,0.004,103.0,103.0,101.0,13.3,1505.2,329.4,-0.8,1.8,2470.468,13.28,0.065,303.2
2021-07-01T05:25:03,42.805,6.029,-0.049,0.001,-0.045,103.0,103.0,101.0,13.3,1505.2,325.6,-0.7,1.8,2470.466,13.28,0.049,271.2
2021-07-01T05:28:03,42.805,6.029,-0.042,0.015,-0.006,103.0,104.0,102.0,13.3,1505.2,324.8,-0.8,1.9,2470.48,13.28,0.044,289.6
2021-07-01T05:31:03,42.805,6.029,-0.039,0.021,0.018,104.0,104.0,102.0,13.4,1505.2,326.2,-0.8,1.9,2470.464,13.28,0.044,298.3
2021-07-01T05:34:03,42.805,6.029,-0.05,0.0,0.011,103.0,103.0,102.0,13.4,1505.2,327.4,-0.7,1.8,2470.442,13.28,0.05,270.0
2021-07-01T05:37:03,42.805,6.029,-0.036,0.007,0.01,104.0,103.0,102.0,13.4,1505.2,327.6,-0.7,1.8,2470.443,13.28,0.036,281.0
2021-07-01T05:40:03,42.805,6.029,-0.02,0.01,0.011,104.0,103.0,103.0,13.3,1505.2,328.7,-0.7,1.8,2470.447,13.28,0.022,296.6
2021-07-01T05:43:03,42.805,6.029,-0.03,0.005,0.018,104.0,103.0,101.0,13.3,1505.2,324.7,-0.7,1.8,2470.481,13.28,0.03,279.5
2021-07-01T05:46:03,42.805,6.029,-0.041,0.013,-0.02,104.0,103.0,101.0,13.4,1505.2,328.6,-0.7,1.8,2470.43,13.28,0.043,287.6
2021-07-01T05:49:03,42.805,6.029,-0.052,-0.003,-0.006,104.0,105.0,102.0,13.4,1505.2,329.1,-0.7,1.8,2470.429,13.28,0.052,266.7
2021-07-01T05:52:03,42.805,6.029,-0.048,0.0,0.015,104.0,104.0,101.0,13.4,1505.2,328.8,-0.7,1.8,2470.441,13.28,0.048,270.0
2021-07-01T05:55:03,42.805,6.029,-0.043,0.002,0.007,104.0,104.0,102.0,13.4,1505.2,329.0,-0.8,1.8,2470.424,13.28,0.043,272.7
2021-07-01T05:58:03,42.805,6.029,-0.04,0.007,-0.014,103.0,103.0,103.0,13.4,1505.2,328.0,-0.8,1.8,2470.465,13.28,0.04,279.9
2021-07-01T06:04:03,42.805,6.029,-0.039,-0.013,-0.007,105.0,104.0,102.0,13.4,1505.2,328.1,-0.7,1.8,2470.464,13.28,0.041,251.6
2021-07-01T06:07:03,42.805,6.029,-0.031,0.004,-0.005,104.0,103.0,101.0,13.4,1505.2,325.0,-0.7,1.8,2470.48,13.28,0.031,277.3
2021-07-01T06:10:03,42.805,6.029,-0.039,-0.002,0.001,104.0,104.0,102.0,13.3,1505.2,328.4,-0.8,1.8,2470.431,13.28,0.039,267.1
2021-07-01T06:13:03,42.805,6.029,-0.043,0.024,0.003,104.0,103.0,102.0,13.4,1505.2,327.5,-0.8,1.8,2470.419,13.28,0.049,299.2
2021-07-01T06:16:03,42.805,6.029,-0.028,-0.006,-0.003,104.0,104.0,102.0,13.3,1505.2,325.6,-0.7,1.9,2470.389,13.28,0.028,257.9
2021-07-01T06:19:03,42.805,6.029,-0.034,-0.017,-0.019,104.0,104.0,101.0,13.4,1505.2,329.6,-0.8,1.8,2470.454,13.28,0.038,243.4
2021-07-01T06:22:03,42.805,6.029,-0.026,-0.011,-0.021,104.0,105.0,101.0,13.3,1505.2,326.5,-0.7,1.8,2470.464,13.28,0.028,247.1
2021-07-01T06:25:03,42.805,6.029,-0.033,-0.018,0.002,105.0,102.0,102.0,13.4,1505.2,325.0,-0.7,1.8,2470.445,13.28,0.037,241.4
2021-07-01T06:28:03,42.805,6.029,-0.033,-0.002,0.003,103.0,104.0,101.0,13.3,1505.2,326.8,-0.7,1.9,2470.434,13.28,0.033,266.5
2021-07-01T06:31:03,42.805,6.029,-0.038,0.011,0.019,104.0,103.0,102.0,13.3,1505.2,326.4,-0.7,1.8,2470.43,13.28,0.039,286.1
2021-07-01T06:34:03,42.805,6.029,-0.041,0.002,-0.01,104.0,104.0,102.0,13.4,1505.2,326.1,-0.7,1.9,2470.387,13.28,0.041,272.8
2021-07-01T06:37:03,42.805,6.029,-0.028,-0.006,-0.003,105.0,103.0,102.0,13.3,1505.2,328.2,-0.8,1.8,2470.445,13.28,0.028,257.9
2021-07-01T06:40:03,42.805,6.029,-0.028,0.004,0.017,104.0,104.0,101.0,13.3,1505.2,325.3,-0.7,1.8,2470.433,13.28,0.028,278.1
2021-07-01T06:43:03,42.805,6.029,-0.025,-0.015,0.021,104.0,104.0,102.0,13.3,1505.2,325.5,-0.8,1.8,2470.46,13.28,0.029,239.0
2021-07-01T06:46:03,42.805,6.029,-0.062,-0.004,0.007,105.0,103.0,103.0,13.4,1505.2,326.4,-0.8,1.8,2470.385,13.28,0.062,266.3
2021-07-01T06:49:03,42.805,6.029,-0.031,-0.016,0.017,104.0,103.0,102.0,13.4,1505.2,328.8,-0.7,1.8,2470.448,13.28,0.034,242.7
2021-07-01T06:52:03,42.805,6.029,-0.055,-0.012,-0.013,103.0,103.0,101.0,13.4,1505.2,326.3,-0.8,1.8,2470.397,13.28,0.056,257.7
2021-07-01T06:55:03,42.805,6.029,-0.057,0.003,-0.025,104.0,104.0,102.0,13.3,1505.2,327.2,-0.8,1.9,2470.457,13.28,0.057,273.0
2021-07-01T06:58:03,42.805,6.029,-0.054,-0.007,-0.014,103.0,105.0,103.0,13.4,1505.2,328.1,-0.8,1.8,2470.419,13.28,0.054,262.6
2021-07-01T07:04:03,42.805,6.029,-0.059,0.02,-0.005,104.0,103.0,103.0,13.4,1505.2,328.6,-0.7,1.8,2470.428,13.28,0.062,288.7
2021-07-01T07:07:03,42.805,6.029,-0.054,-0.016,-0.004,104.0,103.0,102.0,13.4,1505.2,328.1,-0.8,1.8,2470.412,13.28,0.056,253.5
2021-07-01T07:10:03,42.805,6.029,-0.057,0.027,-0.018,105.0,104.0,102.0,13.4,1505.2,327.8,-0.7,1.8,2470.402,13.28,0.063,295.3
2021-07-01T07:13:03,42.805,6.029,-0.033,0.006,0.018,106.0,104.0,101.0,13.3,1505.2,328.1,-0.8,1.9,2470.429,13.28,0.033,280.3
2021-07-01T07:16:03,42.805,6.029,-0.027,0.028,0.02,104.0,104.0,102.0,13.4,1505.2,328.4,-0.8,1.8,2470.423,13.28,0.038,316.0
2021-07-01T07:19:03,42.805,6.029,-0.025,0.004,0.0,105.0,105.0,101.0,13.4,1505.2,328.0,-0.7,1.8,2470.451,13.28,0.025,279.1
2021-07-01T07:22:03,42.805,6.029,-0.043,0.006,-0.029,105.0,104.0,102.0,13.4,1505.2,326.8,-0.7,1.9,2470.392,13.28,0.043,277.9
2021-07-01T07:25:03,42.805,6.029,-0.052,0.004,0.006,104.0,103.0,102.0,13.4,1505.2,325.8,-0.7,1.9,2470.399,13.28,0.052,274.4
2021-07-01T07:28:03,42.805,6.029,-0.044,0.011,-0.032,104.0,104.0,103.0,13.4,1505.2,329.9,-0.7,1.8,2470.433,13.28,0.045,284.0
2021-07-01T07:31:03,42.805,6.029,-0.053,0.016,0.015,104.0,103.0,102.0,13.4,1505.2,326.8,-0.8,1.8,2470.414,13.28,0.055,286.8
2021-07-01T07:34:03,42.805,6.029,-0.055,0.007,-0.004,104.0,104.0,102.0,13.3,1505.2,327.8,-0.7,1.8,2470.415,13.28,0.055,277.3
2021-07-01T07:37:03,42.805,6.029,-0.059,0.008,-0.006,105.0,104.0,102.0,13.4,1505.2,329.6,-0.8,1.8,2470.442,13.28,0.059,277.7
2021-07-01T07:40:03,42.805,6.029,-0.035,-0.006,-0.015,104.0,104.0,102.0,13.4,1505.2,327.7,-0.8,1.9,2470.462,13.28,0.035,260.3
2021-07-01T07:43:03,42.805,6.029,-0.033,0.005,0.031,104.0,105.0,101.0,13.4,1505.2,329.6,-0.7,1.8,2470.438,13.28,0.033,278.6
2021-07-01T07:46:03,42.805,6.029,-0.043,0.007,0.008,105.0,104.0,102.0,13.4,1505.2,325.7,-0.8,1.8,2470.404,13.28,0.043,279.2
2021-07-01T07:49:03,42.805,6.029,-0.033,0.02,0.011,104.0,104.0,102.0,13.4,1505.2,328.6,-0.7,1.8,2470.432,13.28,0.038,301.2
2021-07-01T07:52:03,42.805,6.029,-0.053,0.003,-0.003,104.0,104.0,104.0,13.4,1505.2,325.7,-0.7,1.8,2470.411,13.28,0.053,273.2
2021-07-01T07:55:03,42.805,6.029,-0.025,0.009,0.007,104.0,105.0,103.0,13.4,1505.2,325.3,-0.8,1.8,2470.409,13.28,0.026,289.8
2021-07-01T07:58:03,42.805,6.029,-0.033,0.008,-0.013,105.0,105.0,102.0,13.3,1505.2,329.5,-0.7,1.8,2470.367,13.28,0.033,283.6
2021-07-01T08:04:03,42.805,6.029,-0.031,0.015,0.007,104.0,105.0,102.0,13.4,1505.2,326.7,-0.7,1.8,2470.468,13.28,0.034,295.8
2021-07-01T08:07:03,42.805,6.029,-0.042,0.012,-0.017,105.0,105.0,103.0,13.4,1505.2,326.2,-0.8,1.8,2470.472,13.28,0.043,285.9
2021-07-01T08:10:03,42.805,6.029,-0.053,0.007,0.005,105.0,105.0,102.0,13.3,1505.2,325.9,-0.8,1.8,2470.433,13.28,0.053,277.5
2021-07-01T08:13:03,42.805,6.029,-0.045,-0.001,-0.02,105.0,104.0,102.0,13.4,1505.2,327.6,-0.8,1.8,2470.424,13.28,0.045,268.7
2021-07-01T08:16:03,42.805,6.029,-0.017,0.006,-0.006,105.0,105.0,102.0,13.4,1505.2,324.3,-0.7,1.8,2470.424,13.28,0.018,289.4
2021-07-01T08:19:03,42.805,6.029,-0.039,0.019,-0.003,104.0,104.0,103.0,13.4,1505.2,329.8,-0.7,1.8,2470.431,13.28,0.043,296.0
2021-07-01T08:22:03,42.805,6.029,-0.041,0.023,-0.018,106.0,103.0,104.0,13.4,1505.2,326.0,-0.7,1.8,2470.418,13.28,0.047,299.3
2021-07-01T08:25:03,42.805,6.029,-0.041,0.011,-0.008,105.0,105.0,103.0,13.4,1505.2,328.8,-0.7,1.8,2470.424,13.28,0.042,285.0
2021-07-01T08:28:03,42.805,6.029,-0.031,0.008,-0.011,106.0,105.0,102.0,13.4,1505.2,325.4,-0.7,1.8,2470.408,13.28,0.032,284.5
2021-07-01T08:31:03,42.805,6.029,-0.046,0.007,-0.009,105.0,104.0,102.0,13.4,1505.2,327.0,-0.8,1.8,2470.412,13.28,0.046,278.7
2021-07-01T08:34:03,42.805,6.029,-0.034,0.009,0.012,105.0,105.0,102.0,13.3,1505.2,330.0,-0.7,1.8,2470.424,13.28,0.035,284.8
2021-07-01T08:37:03,42.805,6.029,-0.031,-0.005,-0.019,105.0,105.0,103.0,13.3,1505.2,324.5,-0.7,1.8,2470.433,13.28,0.031,260.8
2021-07-01T08:40:03,42.805,6.029,-0.042,0.003,0.013,105.0,105.0,102.0,13.4,1505.2,325.1,-0.7,1.8,2470.409,13.28,0.042,274.1
2021-07-01T08:43:03,42.805,6.029,-0.033,0.013,0.006,105.0,105.0,102.0,13.3,1505.2,329.6,-0.8,1.8,2470.441,13.28,0.035,291.5
2021-07-01T08:46:03,42.805,6.029,-0.036,0.002,-0.021,104.0,105.0,104.0,13.3,1505.2,327.6,-0.8,1.8,2470.421,13.28,0.036,273.2
2021-07-01T08:49:03,42.805,6.029,-0.047,0.011,0.013,105.0,104.0,102.0,13.3,1505.2,326.0,-0.8,1.8,2470.397,13.28,0.048,283.2
2021-07-01T08:52:03,42.805,6.029,-0.019,0.014,0.01,106.0,104.0,103.0,13.3,1505.2,327.9,-0.7,1.8,2470.399,13.28,0.023,306.4
2021-07-01T08:55:03,42.805,6.029,-0.037,0.005,0.02,106.0,105.0,102.0,13.4,1505.2,328.7,-0.8,1.9,2470.383,13.28,0.037,277.7
2021-07-01T08:58:03,42.805,6.029,-0.037,0.008,0.0,106.0,104.0,103.0,13.3,1505.2,328.4,-0.8,1.8,2470.409,13.28,0.037,282.2
2021-07-01T09:04:03,42.805,6.029,-0.023,0.013,0.005,106.0,104.0,103.0,13.3,1505.2,329.6,-0.8,1.8,2470.464,13.28,0.026,299.5
2021-07-01T09:07:03,42.805,6.029,-0.021,0.003,0.004,105.0,104.0,102.0,13.4,1505.2,328.7,-0.8,1.8,2470.453,13.28,0.021,278.1
2021-07-01T09:10:03,42.805,6.029,-0.046,0.003,0.004,105.0,104.0,101.0,13.3,1505.2,329.7,-0.8,1.8,2470.42,13.28,0.046,273.7
2021-07-01T09:13:03,42.805,6.029,-0.065,-0.003,0.016,105.0,102.0,102.0,13.4,1505.2,326.8,-0.7,1.8,2470.399,13.28,0.065,267.4
2021-07-01T09:16:03,42.805,6.029,-0.036,0.018,-0.003,104.0,103.0,102.0,13.4,1505.2,328.1,-0.7,1.8,2470.445,13.28,0.04,296.6
2021-07-01T09:19:03,42.805,6.029,-0.037,0.017,-0.006,104.0,104.0,102.0,13.3,1505.2,329.4,-0.7,1.8,2470.41,13.28,0.04,294.7
2021-07-01T09:22:03,42.805,6.029,-0.039,0.002,-0.019,105.0,105.0,102.0,13.4,1505.2,326.7,-0.8,1.8,2470.49,13.28,0.039,272.9
2021-07-01T09:25:03,42.805,6.029,-0.037,0.034,0.006,103.0,104.0,104.0,13.4,1505.2,328.7,-0.8,1.8,2470.422,13.28,0.05,312.6
2021-07-01T09:28:03,42.805,6.029,-0.062,0.001,-0.015,104.0,105.0,102.0,13.4,1505.2,325.2,-0.8,1.8,2470.472,13.28,0.062,270.9
2021-07-01T09:31:03,42.805,6.029,-0.053,0.001,0.003,105.0,104.0,103.0,13.3,1505.2,325.0,-0.8,1.8,2470.478,13.28,0.053,271.1
2021-07-01T09:34:03,42.805,6.029,-0.032,0.025,0.012,105.0,104.0,102.0,13.4,1505.2,328.5,-0.7,1.8,2470.421,13.28,0.04,308.0
2021-07-01T09:37:03,42.805,6.029,-0.027,0.004,-0.012,105.0,105.0,102.0,13.3,1505.2,328.2,-0.7,1.8,2470.441,13.28,0.027,278.4
2021-07-01T09:40:03,42.805,6.029,-0.031,-0.001,0.017,106.0,104.0,101.0,13.3,1505.2,328.7,-0.7,1.9,2470.466,13.28,0.031,268.2
2021-07-01T09:43:03,42.805,6.029,-0.037,0.017,-0.009,106.0,105.0,102.0,13.4,1505.2,328.5,-0.8,1.8,2470.41,13.28,0.04,294.7
2021-07-01T09:46:03,42.805,6.029,-0.062,0.004,-0.022,105.0,104.0,102.0,13.4,1505.2,325.6,-0.7,1.8,2470.426,13.28,0.062,273.7
2021-07-01T09:49:03,42.805,6.029,-0.011,-0.005,-0.017,105.0,103.0,102.0,13.3,1505.2,328.4,-0.7,1.8,2470.394,13.28,0.012,245.6
2021-07-01T09:52:03,42.805,6.029,-0.019,-0.001,0.032,105.0,104.0,104.0,13.3,1505.2,327.0,-0.8,1.8,2470.44,13.28,0.019,267.0
2021-07-01T09:55:03,42.805,6.029,-0.029,0.019,-0.029,105.0,104.0,102.0,13.4,1505.2,328.7,-0.7,1.8,2470.45,13.28,0.034,303.2